Terminal Aerodrome Forecast
Issued by NWS Omaha/Valley, NE

Home | Current Version | Previous Version | Graphics & Text | Print | Product List | Glossary On
Versions: 1 2 3 4 5 6 7 8 9 10 11 12 13 14 15 16 17 18 19 20 21 22 23 24 25 26 27 28 29 30 31 32 33 34 35 36 37 38
272
FTUS43 KOAX 192320
TAFOFK
TAF
KOFK 192320Z 2000/2024 16014G22KT P6SM BKN250
     FM200400 16013KT P6SM BKN015
     FM200900 17012KT 5SM -DZ BR OVC005
     FM201400 20011KT P6SM SCT007 BKN015
     FM201700 23012KT P6SM BKN035
     FM201900 30016G24KT P6SM SCT200=

USA.gov is the U.S. government's official web portal to all federal, state and local government web resources and services.